Time,TemperatureF,DewpointF,PressureIn,WindDirection,WindDirectionDegrees,WindSpeedMPH,WindSpeedGustMPH,Humidity,HourlyPrecipIn,Conditions,Clouds,dailyrainin,SoftwareType,DateUTC
2013-02-07 13:01:00,38.0,36.0,-100.00,West,269,0.0,0.0,93,-99.99,,,0.19,,2013-02-07 21:01:00,
2013-02-07 13:11:00,38.0,36.0,-100.00,West,269,0.0,0.0,93,-99.99,,,0.19,,2013-02-07 21:11:00,
2013-02-07 13:21:00,38.0,36.0,-100.00,West,269,0.0,0.0,93,-99.99,,,0.19,,2013-02-07 21:21:00,
2013-02-07 13:31:00,38.0,36.0,-100.00,West,269,0.0,0.0,93,-99.99,,,0.19,,2013-02-07 21:31:00,
2013-02-07 13:41:00,38.0,36.0,-100.00,West,269,0.0,0.0,93,-99.99,,,0.19,,2013-02-07 21:41:00,
2013-02-07 14:02:00,39.0,38.0,-100.00,SSW,193,0.0,2.0,95,0.01,,,0.20,,2013-02-07 22:02:00,
2013-02-07 14:11:00,39.0,38.0,-100.00,SSW,193,0.0,2.0,95,0.01,,,0.20,,2013-02-07 22:11:00,
2013-02-07 14:21:00,39.0,38.0,-100.00,SSW,193,0.0,2.0,95,0.01,,,0.20,,2013-02-07 22:21:00,
2013-02-07 14:31:00,39.0,38.0,-100.00,SSW,193,0.0,2.0,95,0.01,,,0.20,,2013-02-07 22:31:00,
2013-02-07 14:42:00,39.0,38.0,-100.00,SSW,193,0.0,2.0,95,0.01,,,0.20,,2013-02-07 22:42:00,
2013-02-07 15:01:00,40.0,37.0,-100.00,SSW,199,0.0,1.0,90,0.00,,,0.18,,2013-02-07 23:01:00,
2013-02-07 15:11:00,40.0,37.0,-100.00,SSW,199,0.0,1.0,90,0.00,,,0.18,,2013-02-07 23:11:00,
2013-02-07 15:21:00,40.0,37.0,-100.00,SSW,199,0.0,1.0,90,0.00,,,0.18,,2013-02-07 23:21:00,
2013-02-07 15:31:00,40.0,37.0,-100.00,SSW,199,0.0,1.0,90,0.00,,,0.18,,2013-02-07 23:31:00,
2013-02-07 15:41:00,40.0,37.0,-100.00,SSW,199,0.0,1.0,90,0.00,,,0.18,,2013-02-07 23:41:00,
2013-02-07 16:01:00,37.0,37.0,-100.00,South,174,0.0,2.0,100,0.00,,,0.15,,2013-02-08 00:01:00,
2013-02-07 16:11:00,37.0,37.0,-100.00,South,174,0.0,2.0,100,0.00,,,0.15,,2013-02-08 00:11:00,
2013-02-07 16:21:00,37.0,37.0,-100.00,South,174,0.0,2.0,100,0.00,,,0.15,,2013-02-08 00:21:00,
2013-02-07 16:31:00,37.0,37.0,-100.00,South,174,0.0,2.0,100,0.00,,,0.15,,2013-02-08 00:31:00,
2013-02-07 16:41:00,37.0,37.0,-100.00,South,174,0.0,2.0,100,0.00,,,0.15,,2013-02-08 00:41:00,
2013-02-07 17:41:00,34.0,34.0,-100.00,SSE,165,0.0,5.0,100,0.00,,,0.10,,2013-02-08 01:41:00,
2013-02-07 18:01:00,33.0,33.0,-100.00,SE,138,0.0,2.0,100,0.01,,,0.09,,2013-02-08 02:01:00,
2013-02-07 18:11:00,33.0,33.0,-100.00,SE,138,0.0,2.0,100,0.01,,,0.09,,2013-02-08 02:11:00,
2013-02-07 18:21:00,33.0,33.0,-100.00,SE,138,0.0,2.0,100,0.01,,,0.09,,2013-02-08 02:21:00,
2013-02-07 18:31:00,33.0,33.0,-100.00,SE,138,0.0,2.0,100,0.01,,,0.09,,2013-02-08 02:31:00,
2013-02-07 18:42:00,33.0,33.0,-100.00,SE,138,0.0,2.0,100,0.01,,,0.09,,2013-02-08 02:42:00,
2013-02-07 19:01:00,32.0,32.0,-100.00,South,169,0.0,1.0,100,0.00,,,0.08,,2013-02-08 03:01:00,
2013-02-07 19:12:00,32.0,32.0,-100.00,South,169,0.0,1.0,100,0.00,,,0.08,,2013-02-08 03:12:00,
2013-02-07 19:22:00,32.0,32.0,-100.00,South,169,0.0,1.0,100,0.00,,,0.08,,2013-02-08 03:22:00,
2013-02-07 19:31:00,32.0,32.0,-100.00,South,169,0.0,1.0,100,0.00,,,0.08,,2013-02-08 03:31:00,
2013-02-07 19:41:00,32.0,32.0,-100.00,South,169,0.0,1.0,100,0.00,,,0.08,,2013-02-08 03:41:00,
2013-02-07 20:01:00,31.0,31.0,-100.00,SE,133,0.0,1.0,100,0.00,,,0.05,,2013-02-08 04:01:00,
2013-02-07 20:11:00,31.0,31.0,-100.00,SE,133,0.0,1.0,100,0.00,,,0.05,,2013-02-08 04:11:00,
2013-02-07 20:21:00,31.0,31.0,-100.00,SE,133,0.0,1.0,100,0.00,,,0.05,,2013-02-08 04:21:00,
2013-02-07 20:31:00,31.0,31.0,-100.00,SE,133,0.0,1.0,100,0.00,,,0.05,,2013-02-08 04:31:00,
2013-02-07 20:41:00,31.0,31.0,-100.00,SE,133,0.0,1.0,100,0.00,,,0.05,,2013-02-08 04:41:00,
2013-02-07 21:02:00,31.0,31.0,-100.00,SSE,153,0.0,1.0,100,0.00,,,0.04,,2013-02-08 05:02:00,
2013-02-07 21:11:00,31.0,31.0,-100.00,SSE,153,0.0,1.0,100,0.00,,,0.04,,2013-02-08 05:11:00,
2013-02-07 21:22:00,31.0,31.0,-100.00,SSE,153,0.0,1.0,100,0.00,,,0.04,,2013-02-08 05:22:00,
2013-02-07 21:31:00,31.0,31.0,-100.00,SSE,153,0.0,1.0,100,0.00,,,0.04,,2013-02-08 05:31:00,
2013-02-07 21:41:00,31.0,31.0,-100.00,SSE,153,0.0,1.0,100,0.00,,,0.04,,2013-02-08 05:41:00,
2013-02-07 22:01:00,30.0,30.0,-100.00,SSE,154,0.0,1.0,100,0.00,,,-99.99,,2013-02-08 06:01:00,
2013-02-07 22:11:00,30.0,30.0,-100.00,SSE,154,0.0,1.0,100,0.00,,,-99.99,,2013-02-08 06:11:00,
2013-02-07 22:21:00,30.0,30.0,-100.00,SSE,154,0.0,1.0,100,0.00,,,-99.99,,2013-02-08 06:21:00,
2013-02-07 22:31:00,30.0,30.0,-100.00,SSE,154,0.0,1.0,100,0.00,,,-99.99,,2013-02-08 06:31:00,
2013-02-07 22:41:00,30.0,30.0,-100.00,SSE,154,0.0,1.0,100,0.00,,,-99.99,,2013-02-08 06:41:00,
2013-02-07 23:01:00,30.0,30.0,-100.00,SE,141,0.0,2.0,100,0.00,,,-99.99,,2013-02-08 07:01:00,
2013-02-07 23:11:00,30.0,30.0,-100.00,SE,141,0.0,2.0,100,0.00,,,-99.99,,2013-02-08 07:11:00,
2013-02-07 23:21:00,30.0,30.0,-100.00,SE,141,0.0,2.0,100,0.00,,,-99.99,,2013-02-08 07:21:00,
2013-02-07 23:31:00,30.0,30.0,-100.00,SE,141,0.0,2.0,100,0.00,,,-99.99,,2013-02-08 07:31:00,
2013-02-07 23:42:00,30.0,30.0,-100.00,SE,141,0.0,2.0,100,0.00,,,-99.99,,2013-02-08 07:42:00,